EW6800 Weather Reports


Display with metric or nautical units.
time (UTC)temp
F
wind
direction
speed
MPH
gust
MPH
rain 1hr
in
rain 24hr
in
rain mn
in
humidity
%
barometer
mb
20201127230526 58 322 0.0 0.0 0.00 0.00 0.00 37 1022.6
20201127230036 58 322 0.0 0.0 0.00 0.00 0.00 38 1022.6
20201127225536 58 322 0.0 0.0 0.00 0.00 0.00 37 1022.5
20201127225027 58 322 0.0 0.0 0.00 0.00 0.00 37 1022.5
20201127224611 58 322 0.0 0.0 0.00 0.00 0.00 36 1022.5
20201127224022 58 322 0.0 0.0 0.00 0.00 0.00 35 1022.5
20201127223533 58 230 0.0 0.0 0.00 0.00 0.00 35 1022.5
20201127223043 58 311 0.0 0.0 0.00 0.00 0.00 35 1022.6
20201127222526 58 307 0.0 0.0 0.00 0.00 0.00 33 1022.7
20201127222022 58 300 0.0 0.0 0.00 0.00 0.00 33 1022.6
20201127221549 58 300 0.0 0.0 0.00 0.00 0.00 31 1022.6
20201127220520 59 321 0.0 0.0 0.00 0.00 0.00 29 1022.7
20201127220046 59 317 0.0 1.0 0.00 0.00 0.00 28 1022.7
20201127215530 59 317 0.0 1.0 0.00 0.00 0.00 28 1022.7
20201127215037 59 317 0.0 0.0 0.00 0.00 0.00 27 1022.7
20201127214537 59 311 0.0 0.0 0.00 0.00 0.00 27 1022.7
20201127214037 59 209 0.0 0.0 0.00 0.00 0.00 27 1022.8
20201127213520 59 224 0.0 0.0 0.00 0.00 0.00 27 1022.8
20201127213038 59 299 0.0 0.0 0.00 0.00 0.00 27 1022.9
20201127212523 59 328 0.0 1.0 0.00 0.00 0.00 26 1022.9
20201127212018 59 293 0.0 1.0 0.00 0.00 0.00 25 1022.9
20201127211514 59 284 0.0 0.0 0.00 0.00 0.00 27 1023.0
20201127210540 59 319 0.0 0.0 0.00 0.00 0.00 28 1023.0
20201127210136 59 305 0.0 0.0 0.00 0.00 0.00 27 1023.0
20201127205556 59 305 0.0 0.0 0.00 0.00 0.00 27 1023.2
20201127205047 59 305 0.0 0.0 0.00 0.00 0.00 27 1023.2
20201127204608 59 307 0.0 0.0 0.00 0.00 0.00 28 1023.2
20201127204048 58 307 0.0 0.0 0.00 0.00 0.00 28 1023.3
20201127203556 59 313 0.0 1.0 0.00 0.00 0.00 27 1023.4
20201127203118 59 313 0.0 1.0 0.00 0.00 0.00 27 1023.5
20201127202536 59 340 0.0 0.0 0.00 0.00 0.00 27 1023.4
20201127202041 59 132 0.0 0.0 0.00 0.00 0.00 27 1023.5
20201127201622 58 131 0.0 0.0 0.00 0.00 0.00 27 1023.6
20201127200542 59 131 0.0 0.0 0.00 0.00 0.00 26 1023.7
20201127200139 59 131 0.0 0.0 0.00 0.00 0.00 26 1023.8
20201127195546 59 131 0.0 0.0 0.00 0.00 0.00 27 1023.9
20201127195033 58 131 0.0 0.0 0.00 0.00 0.00 26 1024.0
20201127194548 58 131 0.0 0.0 0.00 0.00 0.00 26 1024.0
20201127194025 58 132 0.0 0.0 0.00 0.00 0.00 27 1024.1
20201127193525 58 132 0.0 1.0 0.00 0.00 0.00 27 1024.1
20201127193055 57 132 0.0 1.0 0.00 0.00 0.00 26 1024.2
20201127192525 57 131 0.0 3.0 0.00 0.00 0.00 26 1024.2
20201127192028 57 132 0.0 3.0 0.00 0.00 0.00 24 1024.3
20201127191550 57 132 0.0 1.0 0.00 0.00 0.00 26 1024.3
20201127190541 57 132 0.0 1.0 0.00 0.00 0.00 31 1024.5
20201127190145 57 132 0.0 1.0 0.00 0.00 0.00 31 1024.5
20201127185549 57 132 0.0 0.0 0.00 0.00 0.00 31 1024.6
20201127185107 57 132 0.0 0.0 0.00 0.00 0.00 28 1024.7
20201127184659 57 132 0.0 0.0 0.00 0.00 0.00 29 1024.8
20201127184045 57 132 0.0 0.0 0.00 0.00 0.00 29 1024.8
20201127183539 57 132 0.0 0.0 0.00 0.00 0.00 29 1024.8
20201127183101 58 132 0.0 0.0 0.00 0.00 0.00 28 1024.8
20201127182554 58 132 0.0 1.0 0.00 0.00 0.00 28 1024.8
20201127182035 58 132 0.0 1.0 0.00 0.00 0.00 27 1024.8
20201127181549 57 132 0.0 1.0 0.00 0.00 0.00 28 1024.9
20201127180555 57 132 0.0 0.0 0.00 0.00 0.00 26 1024.8
20201127180142 57 132 0.0 0.0 0.00 0.00 0.00 29 1024.8
20201127175600 56 132 0.0 0.0 0.00 0.00 0.00 29 1024.8
20201127175052 56 132 0.0 0.0 0.00 0.00 0.00 30 1024.8
20201127174612 56 132 0.0 0.0 0.00 0.00 0.00 29 1024.8
20201127174049 56 132 0.0 0.0 0.00 0.00 0.00 29 1024.8
20201127173549 56 133 0.0 0.0 0.00 0.00 0.00 29 1024.8
20201127173156 56 133 0.0 0.0 0.00 0.00 0.00 29 1024.9
20201127172546 55 133 0.0 0.0 0.00 0.00 0.00 30 1024.8
20201127172042 55 133 0.0 0.0 0.00 0.00 0.00 31 1024.8
20201127171544 54 133 0.0 0.0 0.00 0.00 0.00 30 1024.7
20201127170530 53 134 0.0 0.0 0.00 0.00 0.00 30 1024.6
20201127170114 53 61 0.0 0.0 0.00 0.00 0.00 30 1024.7
20201127165531 53 61 0.0 0.0 0.00 0.00 0.00 30 1024.6
20201127165028 53 61 0.0 0.0 0.00 0.00 0.00 29 1024.6
20201127164544 53 61 0.0 0.0 0.00 0.00 0.00 30 1024.6
20201127164038 52 61 0.0 0.0 0.00 0.00 0.00 30 1024.7
20201127163530 52 61 0.0 0.0 0.00 0.00 0.00 29 1024.5
20201127163046 52 61 0.0 0.0 0.00 0.00 0.00 29 1024.6
20201127162525 52 61 0.0 0.0 0.00 0.00 0.00 28 1024.6
20201127162023 52 59 0.0 0.0 0.00 0.00 0.00 28 1024.5
20201127161534 52 59 0.0 0.0 0.00 0.00 0.00 29 1024.5
20201127160526 51 59 0.0 0.0 0.00 0.00 0.00 28 1024.5
20201127160108 51 59 0.0 0.0 0.00 0.00 0.00 27 1024.4
20201127155526 51 59 0.0 0.0 0.00 0.00 0.00 27 1024.3
20201127155025 51 59 0.0 0.0 0.00 0.00 0.00 27 1024.3
20201127154531 51 59 0.0 0.0 0.00 0.00 0.00 27 1024.2
20201127154019 51 59 0.0 0.0 0.00 0.00 0.00 26 1024.2
20201127153520 51 59 0.0 0.0 0.00 0.00 0.00 25 1024.2
20201127153026 51 59 0.0 0.0 0.00 0.00 0.00 26 1024.1
20201127152536 51 59 0.0 0.0 0.00 0.00 0.00 25 1024.1
20201127152020 51 59 0.0 0.0 0.00 0.00 0.00 25 1024.0
20201127151613 51 59 0.0 0.0 0.00 0.00 0.00 25 1024.0
20201127150534 51 59 0.0 1.0 0.00 0.00 0.00 24 1024.0
20201127150040 51 59 0.0 0.0 0.00 0.00 0.00 25 1024.0
20201127145525 51 58 0.0 0.0 0.00 0.00 0.00 25 1023.9
20201127145030 50 49 0.0 0.0 0.00 0.00 0.00 25 1023.9
20201127144539 50 52 0.0 0.0 0.00 0.00 0.00 25 1023.8
20201127144039 50 37 0.0 0.0 0.00 0.00 0.00 26 1023.8
20201127143545 50 60 0.0 0.0 0.00 0.00 0.00 27 1023.8
20201127143101 50 60 0.0 0.0 0.00 0.00 0.00 27 1023.8
20201127142533 50 61 0.0 0.0 0.00 0.00 0.00 27 1023.8
20201127142023 50 59 0.0 0.0 0.00 0.00 0.00 27 1023.8
20201127141623 50 59 0.0 0.0 0.00 0.00 0.00 27 1023.7
20201127140516 50 59 0.0 0.0 0.00 0.00 0.00 28 1023.7
20201127140026 50 59 0.0 0.0 0.00 0.00 0.00 28 1023.7
20201127135529 50 53 0.0 0.0 0.00 0.00 0.00 29 1023.7
20201127135023 49 24 0.0 0.0 0.00 0.00 0.00 29 1023.7
20201127134538 49 344 0.0 0.0 0.00 0.00 0.00 29 1023.7
20201127134020 49 315 0.0 0.0 0.00 0.00 0.00 30 1023.7
20201127133521 49 315 0.0 0.0 0.00 0.00 0.00 31 1023.6
20201127133024 49 315 0.0 0.0 0.00 0.00 0.00 30 1023.5
20201127132523 49 315 0.0 0.0 0.00 0.00 0.00 31 1023.5
20201127132016 49 315 0.0 0.0 0.00 0.00 0.00 30 1023.5
20201127131516 49 315 0.0 0.0 0.00 0.00 0.00 30 1023.4
20201127130528 49 315 0.0 0.0 0.00 0.00 0.00 30 1023.5
20201127130051 49 315 0.0 0.0 0.00 0.00 0.00 30 1023.5
20201127125529 49 315 0.0 0.0 0.00 0.00 0.00 30 1023.5
20201127125023 49 315 0.0 0.0 0.00 0.00 0.00 30 1023.5
20201127124550 49 149 0.0 0.0 0.00 0.00 0.00 30 1023.5
20201127124031 49 149 0.0 1.0 0.00 0.00 0.00 30 1023.5
20201127123526 49 150 0.0 1.0 0.00 0.00 0.00 30 1023.6
20201127123032 49 57 0.0 2.0 0.00 0.00 0.00 31 1023.5
20201127122522 49 57 0.0 2.0 0.00 0.00 0.00 31 1023.5
20201127122056 49 88 0.0 1.0 0.00 0.00 0.00 31 1023.4
20201127121713 49 67 0.0 0.0 0.00 0.00 0.00 31 1023.6
20201127120536 49 58 0.0 0.0 0.00 0.00 0.00 30 1023.5
20201127120122 49 124 0.0 0.0 0.00 0.00 0.00 30 1023.5
20201127115541 49 41 0.0 4.0 0.00 0.00 0.00 30 1023.6
20201127115037 49 25 0.0 4.0 0.00 0.00 0.00 30 1023.6
20201127114557 49 73 0.0 2.0 0.00 0.00 0.00 30 1023.6
20201127114029 49 101 0.0 2.0 0.00 0.00 0.00 30 1023.6
20201127113547 49 90 0.0 1.0 0.00 0.00 0.00 30 1023.7
20201127113054 49 78 0.0 1.0 0.00 0.00 0.00 30 1023.8
20201127112537 49 53 0.0 1.0 0.00 0.00 0.00 30 1023.8
20201127112032 49 61 0.0 2.0 0.00 0.00 0.00 29 1023.7
20201127111541 49 69 0.0 1.0 0.00 0.00 0.00 29 1023.8
20201127110525 49 77 0.0 1.0 0.00 0.00 0.00 30 1023.8
20201127110049 49 67 0.0 1.0 0.00 0.00 0.00 30 1023.8
20201127105523 49 67 0.0 1.0 0.00 0.00 0.00 30 1023.7
20201127105024 49 74 0.0 1.0 0.00 0.00 0.00 31 1023.8
20201127104530 49 68 0.0 1.0 0.00 0.00 0.00 30 1023.8
20201127104041 49 57 0.0 1.0 0.00 0.00 0.00 30 1023.8
20201127103520 49 36 0.0 0.0 0.00 0.00 0.00 31 1023.9
20201127103059 49 32 0.0 0.0 0.00 0.00 0.00 30 1023.8
20201127102528 49 40 0.0 0.0 0.00 0.00 0.00 30 1023.7
20201127102036 49 38 0.0 0.0 0.00 0.00 0.00 30 1023.7
20201127101636 49 34 0.0 0.0 0.00 0.00 0.00 30 1023.8
20201127100523 50 65 0.0 0.0 0.00 0.00 0.00 30 1023.6
20201127100030 50 44 0.0 0.0 0.00 0.00 0.00 29 1023.6
20201127095516 50 42 0.0 0.0 0.00 0.00 0.00 29 1023.6
20201127095020 50 333 0.0 0.0 0.00 0.00 0.00 29 1023.6
20201127094530 50 333 0.0 0.0 0.00 0.00 0.00 30 1023.7
20201127094033 50 333 0.0 0.0 0.00 0.00 0.00 29 1023.7
20201127093521 50 333 0.0 0.0 0.00 0.00 0.00 30 1023.8
20201127093024 50 333 0.0 0.0 0.00 0.00 0.00 30 1023.9
20201127092540 50 333 0.0 0.0 0.00 0.00 0.00 30 1023.9
20201127092020 50 355 0.0 1.0 0.00 0.00 0.00 29 1023.8
20201127091527 50 346 0.0 0.0 0.00 0.00 0.00 30 1023.8
20201127090136 50 343 0.0 3.0 0.00 0.00 0.00 30 1023.8
20201127085555 50 343 0.0 3.0 0.00 0.00 0.00 30 1023.8
20201127085058 50 71 0.0 0.0 0.00 0.00 0.00 30 1023.8
20201127084605 50 72 0.0 0.0 0.00 0.00 0.00 30 1023.7
20201127084100 50 78 0.0 0.0 0.00 0.00 0.00 30 1023.6
20201127083552 50 96 0.0 0.0 0.00 0.00 0.00 31 1023.6
20201127083426 50 333 0.0 0.0 0.00 0.00 0.00 30 1023.6
20201127082613 50 116 0.0 0.0 0.00 0.00 0.00 30 1023.6
20201127082110 50 65 0.0 0.0 0.00 0.00 0.00 30 1023.5
20201127081747 50 104 0.0 0.0 0.00 0.00 0.00 30 1023.5
20201127080249 50 61 0.0 0.0 0.00 0.00 0.00 29 1023.6
20201127075602 50 61 0.0 0.0 0.00 0.00 0.00 29 1023.7
20201127075114 50 76 0.0 0.0 0.00 0.00 0.00 30 1023.7
20201127074631 50 85 0.0 0.0 0.00 0.00 0.00 30 1023.8
20201127074118 50 150 0.0 0.0 0.00 0.00 0.00 30 1023.9
20201127073611 50 150 0.0 0.0 0.00 0.00 0.00 30 1023.9
20201127073300 51 150 0.0 0.0 0.00 0.00 0.00 30 1023.9
20201127072556 51 150 0.0 0.0 0.00 0.00 0.00 29 1023.9
20201127072056 51 32 0.0 1.0 0.00 0.00 0.00 29 1023.8
20201127071728 51 40 0.0 0.0 0.00 0.00 0.00 30 1023.9
20201127070044 51 14 0.0 1.0 0.00 0.00 0.00 29 1023.6
20201127065524 51 360 0.0 1.0 0.00 0.00 0.00 30 1023.6
20201127065025 51 59 0.0 3.0 0.00 0.00 0.00 30 1023.5
20201127064554 51 51 0.0 3.0 0.00 0.00 0.00 30 1023.6
20201127064027 51 21 0.0 2.0 0.00 0.00 0.00 30 1023.5
20201127063529 51 37 0.0 2.0 0.00 0.00 0.00 30 1023.5
20201127063038 51 57 0.0 1.0 0.00 0.00 0.00 30 1023.5
20201127062529 51 93 0.0 5.0 0.00 0.00 0.00 30 1023.6
20201127062030 51 59 0.0 5.0 0.00 0.00 0.00 30 1023.5
20201127061540 51 28 0.0 4.0 0.00 0.00 0.00 30 1023.5
20201127060126 51 19 0.0 1.0 0.00 0.00 0.00 31 1023.4
20201127055604 51 21 0.0 3.0 0.00 0.00 0.00 31 1023.5
20201127055055 51 91 0.0 5.0 0.00 0.00 0.00 31 1023.5
20201127054721 51 45 0.0 5.0 0.00 0.00 0.00 32 1023.5
20201127054059 51 46 0.0 4.0 0.00 0.00 0.00 32 1023.4
20201127053603 51 32 0.0 7.0 0.00 0.00 0.00 32 1023.5
20201127053131 51 65 2.0 7.0 0.00 0.00 0.00 32 1023.3
20201127052556 51 355 0.0 4.0 0.00 0.00 0.00 32 1023.4
20201127052053 51 37 0.0 8.0 0.00 0.00 0.00 32 1023.3
20201127051633 51 37 1.0 9.0 0.00 0.00 0.00 32 1023.3
20201127051054 51 16 2.0 9.0 0.00 0.00 0.00 32 1023.3
20201127050553 51 78 1.0 9.0 0.00 0.00 0.00 32 1023.4
20201127050141 51 66 2.0 9.0 0.00 0.00 0.00 32 1023.2
20201127045556 50 65 2.0 11.0 0.00 0.00 0.00 33 1023.2
20201127045108 50 37 1.0 11.0 0.00 0.00 0.00 33 1023.1
20201127044600 50 39 0.0 9.0 0.00 0.00 0.00 34 1023.1
20201127044103 50 54 0.0 10.0 0.00 0.00 0.00 34 1023.0
20201127043237 50 55 0.0 10.0 0.00 0.00 0.00 34 1023.0
20201127042552 50 68 2.0 9.0 0.00 0.00 0.00 34 1023.0
20201127042052 50 44 0.0 8.0 0.00 0.00 0.00 34 1023.1
20201127041639 50 57 1.0 11.0 0.00 0.00 0.00 34 1023.1
20201127041054 50 39 1.0 11.0 0.00 0.00 0.00 33 1022.8
20201127040612 50 55 2.0 16.0 0.00 0.00 0.00 33 1022.9
20201127040225 50 232 1.0 13.0 0.00 0.00 0.00 34 1022.9
20201127035553 50 9 4.0 13.0 0.00 0.00 0.00 34 1022.9
20201127035101 50 80 3.0 8.0 0.00 0.00 0.00 34 1022.9
20201127034824 50 90 0.0 12.0 0.00 0.00 0.00 34 1022.8
20201127034051 50 117 0.0 8.0 0.00 0.00 0.00 35 1023.1
20201127033055 50 73 0.0 11.0 0.00 0.00 0.00 35 1023.0
20201127032540 50 71 0.0 11.0 0.00 0.00 0.00 35 1022.9
20201127032039 50 350 1.0 8.0 0.00 0.00 0.00 35 1022.9
20201127031633 50 67 1.0 6.0 0.00 0.00 0.00 35 1022.7
20201127031039 50 306 0.0 8.0 0.00 0.00 0.00 35 1022.8
20201127030546 50 22 1.0 8.0 0.00 0.00 0.00 34 1022.9
20201127030116 50 53 0.0 4.0 0.00 0.00 0.00 35 1023.0
20201127025539 50 15 0.0 5.0 0.00 0.00 0.00 35 1023.0
20201127025038 50 66 1.0 5.0 0.00 0.00 0.00 36 1023.0
20201127024627 50 347 0.0 5.0 0.00 0.00 0.00 36 1022.9
20201127024043 50 309 0.0 6.0 0.00 0.00 0.00 36 1022.9
20201127023129 50 316 0.0 6.0 0.00 0.00 0.00 36 1022.9
20201127022538 50 47 0.0 5.0 0.00 0.00 0.00 37 1022.7
20201127022040 50 5 0.0 5.0 0.00 0.00 0.00 37 1022.6
20201127021651 50 36 0.0 11.0 0.00 0.00 0.00 37 1022.7
20201127021039 50 71 0.0 11.0 0.00 0.00 0.00 37 1022.5
20201127020546 50 220 0.0 8.0 0.00 0.00 0.00 37 1022.6
20201127020112 50 296 0.0 3.0 0.00 0.00 0.00 37 1022.7
20201127015539 50 59 0.0 8.0 0.00 0.00 0.00 37 1022.6
20201127015042 50 86 1.0 8.0 0.00 0.00 0.00 37 1022.6
20201127014556 50 343 2.0 10.0 0.00 0.00 0.00 38 1022.6
20201127014040 50 300 0.0 10.0 0.00 0.00 0.00 37 1022.6
20201127013131 50 146 4.0 10.0 0.00 0.00 0.00 37 1022.4
20201127012542 50 123 0.0 8.0 0.00 0.00 0.00 37 1022.5
20201127012038 50 9 2.0 9.0 0.00 0.00 0.00 37 1022.4
20201127011543 50 19 0.0 13.0 0.00 0.00 0.00 37 1022.4
20201127011103 50 339 1.0 13.0 0.00 0.00 0.00 37 1022.3
20201127010538 50 111 0.0 8.0 0.00 0.00 0.00 37 1022.4
20201127010105 50 50 0.0 9.0 0.00 0.00 0.00 37 1022.4
20201127005539 51 59 2.0 9.0 0.00 0.00 0.00 36 1022.4
20201127005033 51 24 1.0 12.0 0.00 0.00 0.00 36 1022.4
20201127004546 51 346 0.0 9.0 0.00 0.00 0.00 37 1022.2
20201127004032 51 314 0.0 6.0 0.00 0.00 0.00 36 1022.5
20201127003106 51 327 0.0 6.0 0.00 0.00 0.00 37 1022.7
20201127002541 51 173 0.0 6.0 0.00 0.00 0.00 37 1022.8
20201127002038 51 259 0.0 3.0 0.00 0.00 0.00 36 1022.9
20201127001038 51 306 0.0 1.0 0.00 0.00 0.00 36 1023.0
20201127000630 51 30 0.0 4.0 0.00 0.00 0.00 36 1022.9
20201126235536 52 336 0.0 12.0 0.00 0.00 0.00 37 1023.0
20201126235039 52 29 0.0 10.0 0.00 0.00 0.00 36 1022.8
20201126234545 52 16 0.0 9.0 0.00 0.00 0.00 36 1023.0
20201126234036 52 16 0.0 14.0 0.00 0.00 0.00 36 1022.9
20201126233050 52 92 0.0 14.0 0.00 0.00 0.00 35 1023.0
20201126232546 52 78 0.0 10.0 0.00 0.00 0.00 35 1022.8
20201126232032 52 113 1.0 10.0 0.00 0.00 0.00 35 1022.7
20201126231604 52 46 2.0 9.0 0.00 0.00 0.00 36 1022.8